Weather in Murahovka

Ukraine / Mykolaiv District     47°14′53″N   33°01′16″E
temp.,
°C
wind,
m/s
gust,
m/s
humid.,
%
clouds,
%
prec.,
mm/h
press.,
hPa
HPBL,
m
13 june, sun
sun1300:00+19wsw3570100 0.0 1011103
03:00+19sw3470100 0.0 101174
06:00+19ssw3574100 0.0 1010116
09:00+21ssw577172 0.0 1010444
12:00+26ssw674385 0.0 10092601
15:00+24sw685297 0.0 10081020
18:00+24ssw57496 0.0 10071769
21:00+19ssw496899 0.0 1008229
14 june, mon
mon1400:00+17sse3679100 0.0 1008114
03:00+15sse37905 0.0 1008141
06:00+16se379071 0.0 1008185
09:00+22sse67635 0.1 10091101
12:00+25sse574884 0.2 10102242
15:00+20wsw567494 0.4 1010316
18:00+21se237173 0.0 1011329
21:00+18ene33795 0.0 101132
15 june, tue
tue1500:00+17ne22855 0.0 101222
03:00+16ne33885 0.0 101143
06:00+17ne37845 0.0 1011146
09:00+23ne69594 0.0 1011649
12:00+27ene7843100 0.0 10092415
15:00+28e784184 0.1 10082338
18:00+18ene61190100 7.0 1008442
21:00+18ne51092100 13.8 1008246
16 june, wed
wed1600:00+17ene3695100 4.5 1008132
03:00+15ssw369611 4.5 1008148
06:00+15s239338 0.0 100996
09:00+20sse2371100 0.0 1010603
12:00+22ssw2357100 0.0 10101004
15:00+18s3578100 0.3 1011140
18:00+19wsw347190 0.1 1010221
21:00+16w228499 0.9 101112
17 june, thu
thu1700:00+16nw239346 0.6 101062
03:00+15ne119760 0.6 101014
06:00+16e119510 0.1 101052
09:00+20e237672 0.1 1011755
12:00+24se3461100 0.5 10131333
15:00+26ese3449100 0.5 10132014
18:00+24ne3565100 0.1 1013312
21:00+21e3775100 0.3 1014135